This demonstration page uses our WeatherBlox Daily Observations layout. Learn more.

Hourly Observations for June 15, 2020

Temp ( °F °C ) Dew Point ( °F °C ) Humidity (%) Winds ( mph kmh ) Pressure ( in mb ) Visibility ( mi km ) Precip ( " mm )
12:15 am 00:15 Clear 79 26.2 50 10.2 37 37 S 21 33 29.84 1010 10 16.0934 0 0
12:35 am 00:35 Clear 78 25.5 51 10.8 40 40 S 24 39 29.85 1011 10 16.0934 0 0
12:55 am 00:55 Clear 77 25.1 52 10.9 41 41 S 21 33 29.86 1011 10 16.0934 0 0
1:15 am 01:15 Clear 77 25.2 51 10.6 40 40 S 21 33 29.87 1011 10 16.0934 0 0
1:35 am 01:35 Clear 77 25 51 10.5 40 40 S 20 31 29.88 1012 10 16.0934 0 0
1:55 am 01:55 Clear 77 24.9 51 10.5 40 40 S 21 33 29.88 1012 10 16.0934 0 0
2:15 am 02:15 Clear 77 24.8 50 10.2 40 40 S 18 30 29.88 1012 10 16.0934 0 0
2:35 am 02:35 Clear 76 24.6 50 10.1 40 40 S 20 31 29.89 1012 10 16.0934 0 0
2:55 am 02:55 Clear 76 24.5 50 9.8 39 39 S 18 30 29.88 1012 10 16.0934 0 0
3:15 am 03:15 Clear 76 24.3 49 9.6 39 39 S 21 33 29.89 1012 10 16.0934 0 0
3:35 am 03:35 Clear 75 23.9 49 9.5 40 40 S 18 30 29.9 1012 10 16.0934 0 0
3:55 am 03:55 Clear 75 23.7 49 9.3 40 40 S 20 31 29.9 1012 10 16.0934 0 0
4:15 am 04:15 Clear 74 23.3 49 9.5 42 42 S 18 30 29.9 1013 10 16.0934 0 0
4:35 am 04:35 Clear 73 23 50 10 44 44 S 21 33 29.91 1013 10 16.0934 0 0
4:55 am 04:55 Clear 74 23.2 50 9.9 43 43 S 22 35 29.91 1013 10 16.0934 0 0
5:15 am 05:15 Partly Cloudy 74 23.2 50 10.1 44 44 S 20 31 29.91 1013 10 16.0934 0 0
5:35 am 05:35 Partly Cloudy 75 23.8 50 10 42 42 S 18 30 29.92 1013 10 16.0934 0 0
5:55 am 05:55 Partly Cloudy 74 23.4 51 10.5 44 44 S 22 35 29.93 1014 10 16.0934 0 0
6:15 am 06:15 Sunny 74 23.1 51 10.8 46 46 S 18 30 29.93 1014 10 16.0934 0 0
6:35 am 06:35 Sunny 73 23 52 11 47 47 S 21 33 29.93 1014 10 16.0934 0 0
6:55 am 06:55 Sunny 73 23 52 11 47 47 S 22 35 29.94 1014 10 16.0934 0 0
7:15 am 07:15 Sunny 73 22.9 52 11.2 48 48 S 21 33 29.95 1014 10 16.0934 0 0
7:35 am 07:35 Sunny 74 23.5 52 11.1 46 46 S 23 37 29.96 1015 10 16.0934 0 0
7:55 am 07:55 Sunny 75 24 52 11.2 45 45 S 22 35 29.95 1014 10 16.0934 0 0
12:15 pm 12:15 Sunny 85 29.5 51 10.3 30 30 S 26 42 29.87 1012 10 16.09 0 0
12:35 pm 12:35 Sunny 86 30.2 50 10 29 29 S 26 42 29.88 1012 10 16.09 0 0
12:55 pm 12:55 Sunny 87 30.8 52 11 29 29 S 22 35 29.85 1011 10 16.09 0 0
1:15 pm 13:15 Sunny 88 31.1 49 9.7 27 27 S 25 41 29.86 1011 10 16.09 0 0
1:35 pm 13:35 Sunny 91 32.6 49 9.6 24 24 S 28 45 29.84 1010 10 16.09 0 0
2:35 pm 14:35 Sunny 92 33.5 51 10.7 25 25 S 21 33 29.83 1010 10 16.09 0 0
3:15 pm 15:15 Sunny 91 33 51 10.4 25 25 S 21 33 29.84 1010 10 16.09 0 0
3:35 pm 15:35 Sunny 92 33.2 51 10.8 25 25 SSE 23 37 29.83 1010 10 16.09 0 0
3:55 pm 15:55 Sunny 91 33 51 10.8 26 26 S 21 33 29.84 1010 10 16.09 0 0
4:35 pm 16:35 Sunny 91 33 52 11.1 26 26 SSE 22 35 29.84 1010 10 16.09 0 0
4:55 pm 16:55 Sunny 92 33.1 52 10.9 26 26 SSE 23 37 29.83 1010 10 16.09 0 0
5:15 pm 17:15 Sunny 91 32.8 51 10.7 26 26 S 24 39 29.83 1010 10 16.09 0 0
5:35 pm 17:35 Sunny 91 32.9 51 10.7 26 26 S 24 39 29.83 1010 10 16.0934 0 0
5:55 pm 17:55 Sunny 91 32.6 51 10.4 25 25 SSE 23 37 29.83 1010 10 16.0934 0 0
6:15 pm 18:15 Sunny 91 32.5 50 9.8 25 25 SSE 20 31 29.83 1010 10 16.0934 0 0
6:35 pm 18:35 Sunny 90 32.2 49 9.3 24 24 SSE 23 37 29.83 1010 10 16.0934 0 0
6:55 pm 18:55 Sunny 89 31.7 48 9.1 25 25 SSE 21 33 29.83 1010 10 16.0934 0 0
7:15 pm 19:15 Sunny 88 31.1 49 9.2 26 26 SSE 20 31 29.85 1011 10 16.0934 0 0
7:35 pm 19:35 Sunny 88 31 48 8.8 25 25 SSE 16 26 29.85 1011 10 16.0934 0 0
7:55 pm 19:55 Sunny 86 30.1 48 9.1 27 27 SSE 15 24 29.86 1011 10 16.0934 0 0
8:15 pm 20:15 Sunny 85 29.2 48 9.1 28 28 SSE 14 22 29.86 1011 10 16.0934 0 0
8:35 pm 20:35 Sunny 83 28.4 48 9 30 30 SSE 15 24 29.87 1012 10 16.0934 0 0
8:55 pm 20:55 Sunny 82 27.6 48 8.8 31 31 SSE 15 24 29.88 1012 10 16.0934 0 0
9:15 pm 21:15 Clear 80 26.8 48 8.7 32 32 SSE 14 22 29.89 1012 10 16.0934 0 0
9:35 pm 21:35 Clear 79 26.3 48 8.7 33 33 SSE 14 22 29.9 1012 10 16.0934 0 0
9:55 pm 21:55 Clear 78 25.7 48 9.1 35 35 SSE 13 20 29.91 1013 10 16.0934 0 0
10:15 pm 22:15 Clear 78 25.6 49 9.3 36 36 SSE 15 24 29.91 1013 10 16.0934 0 0
10:35 pm 22:35 Clear 78 25.3 49 9.3 36 36 SSE 15 24 29.92 1013 10 16.0934 0 0
10:55 pm 22:55 Clear 77 25 49 9.3 37 37 SSE 13 20 29.93 1013 10 16.0934 0 0
11:15 pm 23:15 Clear 76 24.6 49 9.5 38 38 SSE 13 20 29.94 1014 10 16.0934 0 0
11:35 pm 23:35 Clear 76 24.3 50 9.8 40 40 SSE 13 20 29.94 1014 10 16.0934 0 0
11:55 pm 23:55 Clear 76 24.3 50 10.1 41 41 SSE 14 22 29.94 1014 10 16.0934 0 0

Powered by AerisWeather